St. Johns, AZ

7:29 AM MST on October 23, 2017 (GMT -0700)
Saint Johns Industrial

Weather History for KSJN - June, 2013

Change the Weather History Date:

Sunday, June 2, 2013

  Actual Average (KLSB) Record (KLSB)
Temperature  
Mean Temperature 64 °F -  
Max Temperature 87 °F 92 °F 100 °F (2014)
Min Temperature 42 °F 51 °F 57 °F (2015)
Growing Degree Days 14 (Base 50)    
Moisture  
Dew Point 21 °F    
Average Humidity 14    
Maximum Humidity 28    
Minimum Humidity 6    
Precipitation  
Precipitation 0.00 in - - ()
Sea Level Pressure  
Sea Level Pressure 29.75 in    
Wind  
Wind Speed 7 mph (WSW)    
Max Wind Speed 25 mph    
Max Gust Speed 30 mph    
Visibility 10 miles    
Events      
Averages and records for this station are not official NWS values.
T = Trace of Precipitation, MM = Missing Value Source: NWS Daily Summary

Daily Weather History Graph

Daily Weather History Graph

Search for Another Location

Airport or City:

Trip Planner

Search our weather history database for the weather conditions in past years. The results will help you decide how hot, cold, wet, or windy it might be!

Date:

Astronomy

Jun. 02, 2013 Rise Set
Actual Time 5:05 AM MST 7:25 PM MST
Civil Twilight 4:36 AM MST 7:54 PM MST
Nautical Twilight 4:01 AM MST 8:30 PM MST
Astronomical Twilight 3:22 AM MST 9:09 PM MST
Moon 1:21 AM MST (6/2) 2:11 PM MST (6/2)
Length of Visible Light 15h 18m
Length of Day
14h 20m
Waning Crescent, 30% of the Moon is Illuminated
Jun 2
Waning Crescent
Jun 8
New
Jun 16
First Quarter
Jun 23
Full
Jun 29
Last Quarter

Hourly Weather History & Observations

Time (MST) Temp. Dew Point Humidity Pressure Visibility Wind Dir Wind Speed Gust Speed Precip Events Conditions
12:54 AM 62.1 °F 10.9 °F 13% 29.81 in 10.0 mi SSE 8.1 mph - N/A   Clear
1:54 AM 59.0 °F 12.0 °F 16% 29.80 in 10.0 mi Calm Calm - N/A   Clear
2:54 AM 57.0 °F 12.0 °F 17% 29.81 in 10.0 mi Calm Calm - N/A   Clear
3:54 AM 55.9 °F 12.0 °F 18% 29.80 in 10.0 mi NNE 3.5 mph - N/A   Clear
4:54 AM 48.0 °F 16.0 °F 28% 29.83 in 10.0 mi Calm Calm - N/A   Clear
5:54 AM 55.9 °F 15.1 °F 20% 29.81 in 10.0 mi Calm Calm - N/A   Clear
6:54 AM 60.1 °F 12.9 °F 16% 29.81 in 10.0 mi WNW 3.5 mph - N/A   Clear
7:54 AM 68.0 °F 12.9 °F 12% 29.81 in 10.0 mi WNW 4.6 mph - N/A   Clear
8:54 AM 79.0 °F 18.0 °F 10% 29.76 in 10.0 mi Calm Calm - N/A   Clear
9:54 AM 84.9 °F 21.0 °F 10% 29.75 in 10.0 mi WNW 6.9 mph - N/A   Clear
10:54 AM 86.0 °F 24.1 °F 10% 29.74 in 10.0 mi WNW 3.5 mph 16.1 mph N/A   Clear
11:54 AM 89.1 °F 25.0 °F 10% 29.72 in 10.0 mi WSW 8.1 mph 23.0 mph N/A   Clear
12:54 PM 90.0 °F 23.0 °F 9% 29.70 in 10.0 mi SSW 12.7 mph 29.9 mph N/A   Clear
1:54 PM 91.0 °F 24.1 °F 9% 29.68 in 10.0 mi SW 17.3 mph 26.5 mph N/A   Clear
2:54 PM 89.1 °F 21.9 °F 9% 29.68 in 10.0 mi SW 17.3 mph 23.0 mph N/A   Clear
3:54 PM 91.0 °F 21.0 °F 8% 29.65 in 10.0 mi SW 18.4 mph 28.8 mph N/A   Clear
4:54 PM 90.0 °F 23.0 °F 9% 29.68 in 10.0 mi SW 21.9 mph 29.9 mph N/A   Clear
5:54 PM 87.1 °F 24.1 °F 10% 29.66 in 10.0 mi SW 17.3 mph - N/A   Clear
6:54 PM 84.0 °F 23.0 °F 11% 29.67 in 10.0 mi WSW 15.0 mph - N/A   Clear
7:54 PM 78.1 °F 24.1 °F 14% 29.68 in 10.0 mi WSW 9.2 mph - N/A   Clear
8:54 PM 73.9 °F 25.0 °F 16% 29.68 in 10.0 mi WSW 9.2 mph - N/A   Clear
9:54 PM 70.0 °F 26.1 °F 19% 29.68 in 10.0 mi SW 6.9 mph - N/A   Clear
10:54 PM 68.0 °F 26.1 °F 21% 29.69 in 10.0 mi SSW 11.5 mph - N/A   Clear
11:54 PM 64.0 °F 28.0 °F 26% 29.70 in 10.0 mi South 8.1 mph - N/A   Clear